Theta_e
311 312 309 305 304 304 304 304 304 304 304 305 305 305 306 307 307 308 308 309 310 310 311 315 320 318 314 332 336 321 319 318 320 326 328 327 326 326 328 330 337 336 337 335 332 334 334
311 310 309 306 304 304 304 304 304 304 304 304 304 305 306 306 307 307 307 308 309 310 312 316 320 315 329 332 333 326 320 321 327 328 325 327 328 327 328 330 332 335 333 333 333 334 336
310 310 310 308 306 304 304 304 304 304 304 304 304 305 305 306 306 307 308 309 309 310 312 316 320 317 327 325 332 330 327 326 327 324 323 328 328 326 325 326 331 333 333 331 332 333 335
309 308 309 309 308 306 304 304 304 304 304 304 305 305 305 306 306 307 308 309 309 310 313 317 320 322 330 326 327 330 328 326 326 324 323 328 328 326 327 326 328 329 329 330 334 334 333
309 308 308 310 308 307 305 304 304 304 304 304 304 305 305 306 306 307 308 309 310 311 314 317 327 328 331 326 324 328 328 327 326 324 324 327 326 325 326 325 323 325 325 328 336 334 333
307 307 308 309 307 306 304 303 303 303 303 303 303 304 305 306 306 307 308 310 312 318 323 328 327 327 328 327 324 323 327 327 326 324 324 326 325 324 323 322 323 325 327 329 338 336 333
306 307 308 307 307 306 303 301 301 301 302 302 302 303 305 306 307 307 308 311 326 329 323 327 326 324 325 327 325 325 328 327 325 324 322 325 324 323 323 323 326 326 325 326 329 330 329
306 305 306 306 305 305 303 300 300 300 301 301 301 303 305 306 307 307 307 317 321 320 319 321 323 328 326 327 326 326 328 326 325 324 323 323 324 324 327 328 326 324 324 324 326 330 329
306 306 305 306 305 304 302 299 299 299 300 300 301 302 304 306 307 309 311 318 320 319 319 321 321 322 324 325 326 325 325 326 325 325 325 323 327 328 328 326 325 324 324 324 328 328 326
306 306 306 305 305 304 302 300 299 299 299 300 301 303 305 307 311 313 318 321 319 319 320 322 320 321 323 323 322 324 326 326 325 325 325 325 327 329 328 328 324 323 328 329 328 326 326
304 304 304 304 304 304 303 300 299 298 299 300 300 303 305 307 307 312 316 316 318 319 328 324 321 324 321 321 324 324 327 325 325 326 328 328 328 327 328 325 325 326 330 331 331 326 326
304 304 304 304 303 303 303 300 298 297 298 300 301 303 306 314 313 313 315 315 318 322 326 324 323 321 320 320 322 324 326 325 325 326 330 328 329 329 327 326 327 328 328 329 328 325 326
303 303 303 303 303 303 301 300 298 297 298 300 302 304 307 308 316 314 315 316 320 323 322 322 322 321 319 320 321 323 328 325 325 330 331 332 329 329 328 327 327 329 326 328 329 329 332
303 303 303 302 304 301 300 300 298 297 298 301 303 307 307 307 308 314 316 318 324 322 320 322 323 322 322 321 321 322 328 328 326 328 330 332 331 327 327 327 329 328 325 327 333 331 333
303 303 302 303 302 300 301 300 297 298 299 302 307 313 312 309 307 313 316 319 323 325 322 322 322 324 322 322 322 321 326 328 328 327 330 332 333 332 328 328 327 328 327 327 327 329 328
303 302 302 302 300 301 301 300 298 299 300 307 312 312 316 315 313 313 316 319 320 321 322 321 322 324 325 322 321 321 325 327 329 328 327 328 333 329 329 329 328 328 328 325 327 335 336
302 302 302 301 300 302 300 300 298 300 301 313 315 319 316 316 315 315 316 316 319 320 321 321 320 322 325 325 323 322 323 327 328 328 327 326 330 331 331 328 328 328 325 328 323 325 328
302 302 302 300 299 302 300 301 299 300 302 306 317 324 319 315 315 315 314 316 316 318 319 320 321 322 324 326 329 324 325 328 327 328 328 328 329 331 331 330 328 327 327 330 333 332 333
301 302 302 301 299 301 301 301 299 299 302 303 317 324 317 315 313 313 315 315 315 316 317 321 321 321 321 325 329 332 328 324 324 328 330 330 328 328 327 328 329 332 331 328 327 330 329
301 302 302 299 301 300 301 301 299 298 302 305 316 325 318 316 314 315 318 321 320 318 319 320 321 321 321 325 325 328 328 325 324 326 334 330 334 336 328 334 332 332 332 331 328 330 329
301 300 300 300 301 300 301 301 299 297 303 307 319 325 321 317 315 314 316 320 321 320 320 320 322 321 321 326 328 325 326 326 324 323 325 329 332 333 331 329 328 329 331 331 331 330 330
299 299 300 300 301 301 301 300 300 297 308 311 319 317 316 319 323 317 320 317 322 322 321 319 321 322 321 325 325 332 333 334 335 327 325 327 332 332 334 332 330 331 330 331 329 328 327
299 299 299 300 300 302 302 301 300 298 306 311 313 311 315 320 321 321 321 322 320 321 323 322 321 324 323 330 329 327 326 328 333 334 336 331 333 331 332 333 332 332 332 333 333 334 334
299 298 299 300 300 301 301 301 300 300 298 303 310 312 316 318 318 320 320 320 321 322 326 327 326 331 328 325 327 326 325 325 326 331 330 338 340 339 339 338 341 332 331 332 334 345 344
299 298 298 299 299 301 301 301 301 299 297 302 308 310 314 316 317 317 318 320 323 325 324 327 327 326 324 326 330 328 326 327 326 326 329 330 333 333 336 336 335 333 334 335 339 350 344
299 298 299 298 298 300 301 301 301 300 298 302 308 307 310 314 316 315 314 318 321 323 324 323 326 323 323 324 327 332 329 327 327 325 323 324 333 333 332 337 337 333 337 336 337 355 343
298 298 300 298 297 299 301 301 301 301 299 301 307 309 307 313 314 314 313 314 318 319 321 325 324 324 323 323 324 325 326 326 328 330 329 325 329 333 331 333 330 329 327 336 335 346 341
298 298 300 299 298 297 300 301 301 300 298 301 308 309 307 308 309 312 312 312 312 317 320 320 324 324 324 323 323 323 324 325 326 326 335 331 331 327 329 332 332 346 346 353 340 336 348
298 298 298 298 298 298 297 298 301 300 298 299 307 306 309 310 307 308 308 309 308 312 316 317 322 326 332 332 327 328 324 326 329 331 331 332 329 329 326 328 352 350 352 348 347 348 349
Wind_Speed
16 16 15 13 12 13 13 14 15 16 17 18 19 20 19 19 19 19 20 19 19 19 19 19 18 17 5 3 5 5 5 4 4 4 10 10 9 7 6 7 4 3 9 11 6 3 5
17 17 16 14 13 13 14 14 15 16 17 18 20 20 20 19 20 21 21 20 19 18 18 17 16 14 3 5 3 5 5 4 4 13 18 9 6 9 7 8 5 6 8 7 9 8 2
16 17 16 16 15 14 14 15 15 16 17 20 21 22 21 20 22 23 22 20 19 17 16 14 13 9 4 9 2 3 8 9 10 11 7 10 8 8 10 10 9 7 3 9 9 11 4
16 16 16 17 17 16 15 16 16 16 18 19 21 22 22 21 22 24 23 21 20 17 14 12 11 3 6 6 8 9 9 16 7 10 13 11 6 6 4 8 8 5 6 6 6 3 6
16 17 16 18 18 18 17 16 16 17 18 19 21 22 22 22 22 25 24 22 21 18 13 9 6 1 7 5 6 12 12 14 13 8 12 10 5 5 7 5 6 6 7 7 2 9 4
15 17 17 18 18 19 19 18 18 18 19 20 22 22 22 22 22 24 25 23 19 16 3 4 8 5 5 8 11 15 12 14 3 6 6 6 3 3 5 1 6 6 2 6 5 5 5
18 18 17 18 19 20 20 19 19 19 19 21 22 23 22 21 20 21 27 10 2 2 3 7 4 6 5 9 12 11 14 3 9 5 6 8 1 7 13 10 4 7 8 7 3 5 4
18 18 17 19 20 20 21 20 20 20 20 21 22 23 22 20 19 18 17 4 6 8 8 12 16 17 24 9 5 7 13 5 7 7 8 6 9 12 9 2 5 6 7 9 8 3 6
18 19 19 20 21 22 22 21 21 21 20 21 22 23 23 20 19 10 8 12 11 14 4 8 13 10 12 5 8 9 10 8 8 9 10 9 9 11 2 4 6 5 5 8 4 7 9
16 17 18 20 21 23 23 22 22 22 21 21 22 23 22 23 8 11 6 5 9 15 3 6 7 13 15 7 8 22 20 8 6 11 10 8 12 6 3 4 4 6 8 2 6 6 4
18 19 19 20 22 23 24 24 24 23 22 21 21 22 19 17 14 7 10 13 11 7 2 7 10 12 8 10 2 7 21 8 12 12 5 10 6 5 4 7 7 8 5 6 6 6 5
19 19 20 21 22 23 26 27 26 24 23 22 21 21 21 4 9 9 14 14 9 1 6 1 5 8 10 10 14 7 8 6 8 11 10 10 8 3 6 8 5 6 5 6 5 1 3
19 20 21 22 23 26 29 28 27 26 25 24 23 21 19 12 5 6 11 6 1 4 6 5 6 9 10 9 15 11 10 8 7 3 6 9 8 3 6 5 4 2 4 3 5 3 6
20 21 22 23 26 29 30 30 29 28 27 27 26 19 14 19 11 7 10 1 3 8 12 8 6 12 14 10 13 15 10 8 10 8 5 7 6 10 7 6 5 6 8 5 3 2 5
19 21 21 24 26 29 31 32 31 30 28 31 25 8 5 10 12 4 1 3 6 5 2 13 14 11 10 14 8 11 10 11 11 12 8 3 6 9 11 6 6 4 3 8 2 4 4
19 20 22 24 27 30 32 32 33 32 27 24 15 6 14 8 9 9 1 5 8 9 12 10 11 5 2 13 13 12 10 10 12 14 10 9 6 5 8 3 0 2 3 4 4 2 5
18 19 22 26 27 30 32 33 34 34 29 14 4 3 15 16 13 1 4 7 6 15 16 6 9 7 6 12 9 9 13 11 16 15 12 9 6 9 1 3 6 3 4 3 4 4 3
17 19 22 26 27 30 32 33 35 35 34 14 6 3 12 17 2 3 4 3 5 15 17 3 6 6 6 8 7 9 8 2 6 17 7 10 5 4 8 7 11 9 9 7 5 6 3
16 18 21 25 26 30 31 33 34 32 30 12 4 3 8 11 3 6 6 11 16 18 18 2 5 6 7 5 5 9 4 7 14 8 4 3 2 2 9 9 7 4 5 2 1 2 4
16 18 20 22 25 28 31 34 33 30 25 6 3 2 1 3 5 6 5 7 13 15 13 5 10 8 7 4 5 6 9 6 6 6 6 4 3 4 6 2 3 3 6 6 4 2 4
16 17 20 21 24 26 30 34 33 30 22 1 3 3 4 3 5 9 7 9 14 11 5 4 8 7 7 4 8 5 3 6 3 3 4 4 2 5 7 8 9 12 10 11 8 10 6
15 17 19 20 22 25 29 33 35 33 19 4 3 4 6 8 9 8 7 10 12 12 6 6 5 9 7 3 5 6 8 6 4 3 3 3 2 4 5 6 9 15 18 16 11 8 6
14 17 18 19 20 23 26 30 32 35 17 7 10 11 4 8 7 3 4 6 5 8 8 7 12 3 4 12 10 8 5 5 3 3 5 2 2 1 5 7 9 7 8 3 5 13 7
13 15 18 18 18 21 24 27 28 31 27 6 7 11 3 5 9 10 9 10 9 5 5 8 6 7 5 10 9 6 4 7 8 1 4 3 3 2 2 4 3 7 6 3 1 8 14
12 13 16 17 17 20 22 24 25 27 24 12 13 7 3 5 10 14 20 9 8 6 7 6 12 8 6 6 4 1 3 3 4 8 2 2 3 2 1 3 8 10 5 4 5 8 7
12 12 14 16 16 18 20 22 23 25 25 13 10 11 4 4 5 14 15 14 6 4 4 3 6 8 7 2 2 1 2 2 3 4 6 2 4 4 2 2 4 6 1 6 6 3 17
11 11 13 16 15 16 18 21 22 23 23 19 5 9 5 3 2 10 8 7 8 7 4 2 4 3 5 1 2 2 4 4 5 6 5 4 3 7 5 4 7 7 14 2 0 6 13
10 12 13 14 15 14 16 19 21 22 21 21 6 6 6 3 8 7 9 7 8 8 4 7 4 5 2 1 1 3 3 6 7 9 5 8 6 5 2 4 9 6 6 2 5 3 12
10 11 11 12 14 15 15 16 19 20 21 15 7 11 14 6 6 22 22 15 11 4 3 5 3 9 4 3 2 3 3 3 3 3 5 4 7 5 8 6 6 11 8 5 4 1 6
Wind_Direction
40 38 37 36 29 25 18 12 10 6 1 359 355 350 346 343 339 338 336 336 337 336 337 337 336 335 344 260 242 157 162 155 169 270 243 265 296 285 307 325 149 262 207 224 244 256 167
39 36 31 28 22 18 11 5 4 0 357 353 351 347 344 340 334 333 333 333 331 330 334 335 337 337 337 287 149 156 159 176 239 246 278 273 316 331 300 312 6 349 356 346 317 292 63
36 33 28 23 19 14 8 1 359 355 353 350 348 346 341 337 333 330 326 325 323 323 328 328 333 346 280 243 187 143 178 253 271 267 296 312 355 348 331 321 314 282 317 288 247 253 142
32 28 23 19 16 12 6 359 356 353 352 348 346 344 340 333 329 325 322 319 315 311 318 319 320 340 259 207 199 192 218 253 252 269 282 313 336 301 271 292 322 298 258 267 298 206 166
31 25 22 19 14 8 4 359 355 352 349 347 345 342 336 331 329 325 319 315 307 300 308 305 325 220 271 212 231 217 226 241 219 251 264 281 308 237 307 243 309 288 251 241 321 277 283
20 20 22 17 9 6 3 358 354 350 346 345 344 343 335 330 329 324 318 316 301 299 288 282 271 321 259 229 193 212 216 248 275 241 266 242 245 241 301 352 239 276 265 323 146 258 226
21 22 16 10 6 4 1 356 352 349 344 342 343 341 335 329 325 323 325 339 359 25 217 229 176 257 297 220 135 199 199 186 270 264 248 258 170 243 242 242 287 1 341 336 267 157 121
21 17 12 8 4 1 358 357 352 346 343 340 339 339 333 325 317 313 312 272 15 308 300 274 261 252 260 159 196 229 201 187 218 244 239 293 230 250 269 60 23 341 325 305 305 169 118
13 14 10 6 2 359 356 354 351 345 342 338 337 337 333 323 315 313 268 271 330 317 278 277 229 239 238 171 243 216 189 205 241 227 253 220 254 229 335 355 342 310 262 282 300 358 345
15 10 6 359 358 356 355 354 350 344 340 337 336 335 334 330 310 325 279 356 329 333 312 259 202 228 208 177 248 243 189 188 229 240 245 241 253 224 308 279 260 269 270 240 16 8 270
10 7 1 358 356 356 355 355 348 343 339 335 333 331 328 323 300 301 347 347 338 308 316 211 200 171 169 180 258 211 184 187 243 259 228 256 248 256 194 256 230 249 15 6 341 319 351
8 6 4 1 357 357 356 353 347 343 337 331 328 327 322 0 295 283 313 326 311 21 243 231 115 177 185 201 238 235 149 175 233 254 273 251 303 237 194 237 279 338 342 341 304 250 333
6 5 2 0 359 356 353 353 349 343 336 330 323 318 300 270 216 342 359 327 79 230 282 216 156 170 209 187 224 236 175 184 212 213 284 301 242 240 268 244 221 137 6 325 336 10 221
6 3 0 359 358 352 354 354 350 344 338 329 321 308 280 255 250 313 293 25 226 233 254 296 267 185 193 206 210 240 169 185 225 243 216 221 268 220 188 212 196 199 175 165 266 203 245
5 2 0 359 351 354 355 355 351 344 342 332 328 322 246 262 213 218 356 201 204 231 187 298 309 188 192 211 189 218 185 198 202 223 217 258 264 267 187 164 177 270 284 219 209 320 2
2 3 1 356 357 357 356 356 353 347 345 335 330 299 246 188 162 194 182 253 236 272 308 327 309 148 238 201 210 189 197 204 222 213 206 253 321 357 131 116 310 171 252 14 350 304 278
359 0 359 355 357 358 357 358 356 352 350 348 323 268 126 151 157 179 207 230 271 275 286 318 345 343 342 310 236 197 207 210 208 232 207 212 174 280 70 110 220 285 272 253 159 154 197
357 358 359 355 357 357 358 360 359 0 354 3 303 267 178 154 133 213 238 247 262 281 303 308 315 296 302 340 311 205 191 249 271 208 224 197 160 240 236 223 200 206 215 175 126 290 248
356 354 355 353 357 355 359 359 359 3 8 341 298 271 179 197 218 240 254 248 258 268 277 228 275 305 311 346 350 359 55 32 31 51 44 309 100 29 333 341 336 56 317 210 86 84 262
355 355 352 353 356 356 359 357 356 356 357 333 274 246 287 198 259 280 301 288 269 257 261 345 298 309 305 315 310 328 351 29 53 84 59 53 69 138 203 226 241 301 309 302 194 147 253
357 357 357 357 356 358 359 356 356 352 343 224 234 298 14 210 234 234 254 287 302 268 189 284 328 274 302 357 328 280 304 326 5 37 54 81 57 28 330 341 328 314 290 265 258 233 192
355 356 357 357 358 359 358 358 360 356 353 190 322 351 339 296 294 183 236 259 282 309 140 232 264 295 315 299 303 24 7 40 34 46 76 31 322 16 308 306 303 300 300 301 300 280 288
351 353 355 356 358 359 357 360 4 6 22 352 355 343 298 285 309 286 326 310 295 315 308 273 198 276 291 5 347 342 13 18 46 34 28 73 106 95 272 310 308 314 261 312 335 15 321
344 349 353 355 356 358 357 359 3 7 14 335 301 326 288 298 328 322 253 239 265 317 345 4 46 76 1 327 320 277 306 13 331 356 57 77 58 39 253 360 277 251 307 203 81 81 84
335 343 351 353 355 358 356 357 0 1 5 355 332 335 323 310 322 345 345 273 164 69 26 7 72 70 3 354 333 7 358 359 286 308 318 99 85 1 92 265 280 312 355 333 87 29 73
325 332 344 350 352 355 356 357 359 360 1 5 5 4 318 304 355 339 327 358 20 8 143 283 84 70 48 14 296 227 188 251 237 200 222 264 145 136 333 282 268 241 134 336 106 79 57
319 325 334 343 347 352 353 355 356 358 358 356 307 352 299 290 331 351 1 354 2 342 320 337 356 90 89 12 256 274 237 269 259 219 198 206 216 195 211 225 273 292 314 50 332 192 160
308 315 325 332 341 342 348 351 352 355 359 1 295 343 355 311 293 355 353 349 348 21 14 326 340 20 101 178 281 249 240 240 235 246 197 178 176 209 193 236 269 330 20 34 201 253 166
297 308 315 325 331 338 338 341 347 351 357 5 306 348 338 263 273 306 291 285 287 325 340 327 304 23 2 355 15 312 282 321 338 289 283 219 177 191 170 203 114 62 68 7 22 346 333